Darbhanga Airport

Jump to: basic info | weather | runways | comments

Related pages: nearby airports | nearby navaids | notams | map

Basic information (top)

Codes: VE89
Location: lon 26.192801, lat 85.916901, elev 156 ft / 48 m msl
Status: small_airport

Weather (top)

Current conditions for Lok Nayak Jayaprakash Airport 58nm (107km) SW (rec'd 2014/11/01 11:50Z):

VEPT 011150Z 31002KT 2000 HZ SCT025 26/21 Q1010 NOSIG

Airport forecast for Lok Nayak Jayaprakash Airport 58nm (107km) SW (rec'd 2014/10/30 12:00Z):

TAF VEPT 300900Z 3012/3118 14003KT 4000 HZ FEW020 SCT025 
      BECMG 3016/3018 3000 HZ FEW020 
      BECMG 3022/3024 2000 HZ/BR NSC 
      BECMG 3102/3104 09004KT 1500 BR FEW020 
      BECMG 3108/3110 3000 HZ FEW020 SCT025 
      BECMG 3112/3114 4000 HZ FEW020 
      BECMG 3116/3118 4000 HZ NSC

Runways (top)

10/28: 9,000 x 150 ft (2,743 x 46 m) — paved — not lighted

Latest comments (top)

Requested all the concern person to start Darbhanga Airport: Dear Sir, as you know most of the ... [read]

Darbhanga Airport: Dear Sir, Kindly requested to Please, ... [read]

START DARBHANGA AIR PORT: I REQUESTE TO CENTRAL AND BIHAR ... [read]

Please apeel to start the airport: Dear Kindly Request PM TO Start The ... [read]

airline service: Please please start airline services ... [read]

See all 23 comments for Darbhanga Airport

More... (top)

See also NOTAMs and nearby airports and navaids, or visit the Darbhanga Airport page at the main OurAirports website..